Torna al catalogo

ITAMSAT

AttivoRadioamatoreSSO
NORAD 22826·PAYLOAD·🇮🇹 Italy

Lanciato Sep 26, 1993 da Guiana Space Centre

Loading…

Prossimi Passaggi (prossime 24 ore)

TLE

AggiornatoSource: Space-Track

Epoca: Sep 14, 2026, 04:11 UTC

1 22826U 93061D   26257.17488645  .00000067  00000-0  42004-4 0  9991
2 22826  98.6745 324.4460 0008987 175.1252 185.0020 14.31389938720047

Traccia ITAMSAT in tempo reale con AllMySat

Download on the App Store